K7RAP Weather Reports


Display with metric or nautical units.
time (UTC)temp
F
wind
direction
speed
MPH
gust
MPH
rain 1hr
in
rain 24hr
in
rain mn
in
humidity
%
barometer
mb
20260506132003 54 250 0.0 3.0 0.00 0.00 0.00 84 1018.3
20260506131004 54 231 3.0 4.0 0.00 0.00 0.00 83 1018.6
20260506130006 54 227 1.0 3.0 0.00 0.00 0.00 84 1018.3
20260506125003 54 227 1.0 3.0 0.00 0.00 0.00 84 1018.3
20260506124003 54 327 0.0 2.0 0.00 0.00 0.00 83 1018.3
20260506123004 54 235 0.0 2.0 0.00 0.00 0.00 84 1017.9
20260506122004 54 235 0.0 2.0 0.00 0.00 0.00 84 1017.9
20260506121003 54 220 0.0 2.0 0.00 0.00 0.00 84 1017.9
20260506120005 54 200 1.0 3.0 0.00 0.00 0.00 84 1017.9
20260506115004 54 200 1.0 3.0 0.00 0.00 0.00 84 1017.9
20260506114004 54 245 0.0 2.0 0.00 0.00 0.00 83 1017.9
20260506112003 54 225 0.0 2.0 0.00 0.00 0.00 84 1017.9
20260506111003 55 198 2.0 2.0 0.00 0.00 0.00 84 1017.6
20260506110004 55 217 1.0 2.0 0.00 0.00 0.00 84 1017.6
20260506105003 55 217 1.0 2.0 0.00 0.00 0.00 84 1017.6
20260506104005 55 217 0.0 3.0 0.00 0.00 0.00 84 1017.6
20260506103004 55 203 2.0 4.0 0.00 0.00 0.00 84 1017.3
20260506102003 55 203 2.0 4.0 0.00 0.00 0.00 84 1017.3
20260506101003 55 219 0.0 2.0 0.00 0.00 0.00 83 1017.3
20260506100004 55 215 1.0 3.0 0.00 0.00 0.00 83 1017.3
20260506095003 55 215 1.0 3.0 0.00 0.00 0.00 83 1017.3
20260506094004 55 229 1.0 3.0 0.00 0.00 0.00 84 1016.9
20260506093004 55 142 1.0 2.0 0.00 0.00 0.00 84 1016.9
20260506092003 55 142 1.0 2.0 0.00 0.00 0.00 84 1016.9
20260506091003 55 223 0.0 1.0 0.00 0.00 0.00 84 1016.9
20260506090004 55 223 0.0 3.0 0.00 0.00 0.00 84 1016.9
20260506085003 55 223 0.0 3.0 0.00 0.00 0.00 84 1016.9
20260506084004 55 216 0.0 3.0 0.00 0.00 0.00 84 1016.9
20260506083004 55 232 0.0 3.0 0.00 0.00 0.00 84 1016.6
20260506082003 55 232 0.0 3.0 0.00 0.00 0.00 84 1016.6
20260506081003 55 232 0.0 4.0 0.00 0.00 0.00 84 1016.6
20260506073004 55 210 0.0 2.0 0.00 0.00 0.00 84 1016.3
20260506072004 55 210 0.0 2.0 0.00 0.00 0.00 84 1016.3
20260506071004 56 199 1.0 2.0 0.00 0.00 0.00 85 1016.3
20260506062003 55 230 0.0 2.0 0.00 0.00 0.00 84 1015.9
20260506061004 55 336 0.0 3.0 0.00 0.00 0.00 84 1015.9
20260506051003 55 231 1.0 2.0 0.00 0.00 0.00 84 1015.6
20260506045004 55 9 0.0 2.0 0.00 0.00 0.00 84 1015.6
20260506044003 55 203 0.0 1.0 0.00 0.00 0.00 84 1015.6
20260506043003 55 225 0.0 2.0 0.00 0.00 0.00 83 1015.2
20260506042003 55 225 0.0 2.0 0.00 0.00 0.00 83 1015.2
20260506041003 56 109 0.0 1.0 0.00 0.00 0.00 83 1014.9
20260506040004 57 188 0.0 1.0 0.00 0.00 0.00 81 1014.9
20260506035004 57 188 0.0 1.0 0.00 0.00 0.00 81 1014.9
20260506034004 57 190 1.0 2.0 0.00 0.00 0.00 80 1014.6
20260506033004 58 215 2.0 6.0 0.00 0.00 0.00 78 1014.6
20260506032004 58 215 2.0 6.0 0.00 0.00 0.00 78 1014.6
20260506031003 59 221 0.0 3.0 0.00 0.00 0.00 78 1014.2
20260506030004 60 232 1.0 3.0 0.00 0.00 0.00 77 1014.2
20260506025004 60 232 1.0 3.0 0.00 0.00 0.00 77 1014.2
20260506024004 61 239 3.0 7.0 0.00 0.00 0.00 75 1014.2
20260506023004 62 214 2.0 4.0 0.00 0.00 0.00 74 1014.2
20260506022003 62 214 2.0 4.0 0.00 0.00 0.00 74 1014.2
20260506021003 62 230 2.0 6.0 0.00 0.00 0.00 73 1014.2
20260506020004 63 171 2.0 6.0 0.00 0.00 0.00 73 1014.2
20260506015008 63 171 2.0 6.0 0.00 0.00 0.00 73 1014.2
20260506014003 63 228 2.0 6.0 0.00 0.00 0.00 72 1013.9
20260506013004 64 212 4.0 9.0 0.00 0.00 0.00 70 1013.9
20260506012003 64 212 4.0 9.0 0.00 0.00 0.00 70 1013.9
20260506011003 65 238 4.0 7.0 0.00 0.00 0.00 70 1013.9
20260506010004 65 232 7.0 7.0 0.00 0.00 0.00 69 1013.9
20260506005003 65 232 7.0 7.0 0.00 0.00 0.00 69 1013.9
20260506004004 66 219 4.0 9.0 0.00 0.00 0.00 68 1013.9
20260506003004 64 9 0.0 7.0 0.00 0.00 0.00 72 1014.2
20260506002004 64 9 0.0 7.0 0.00 0.00 0.00 72 1014.2
20260506001003 64 229 3.0 7.0 0.00 0.00 0.00 71 1014.2
20260506000004 64 232 5.0 9.0 0.00 0.00 0.00 71 1014.2
20260505235003 64 232 5.0 9.0 0.00 0.00 0.00 71 1014.2
20260505234004 63 213 2.0 7.0 0.00 0.00 0.00 71 1014.6
20260505233004 63 231 4.0 6.0 0.00 0.00 0.00 72 1014.6
20260505232003 63 231 4.0 6.0 0.00 0.00 0.00 72 1014.6
20260505231003 63 227 5.0 8.0 0.00 0.00 0.00 71 1014.6
20260505230005 64 227 4.0 7.0 0.00 0.00 0.00 71 1014.6
20260505225003 64 227 4.0 7.0 0.00 0.00 0.00 71 1014.6
20260505224004 63 217 3.0 8.0 0.00 0.00 0.00 73 1014.9
20260505223004 63 218 4.0 9.0 0.00 0.00 0.00 71 1014.9
20260505222003 63 218 4.0 9.0 0.00 0.00 0.00 71 1014.9
20260505221003 64 232 8.0 5.0 0.00 0.00 0.00 70 1015.2
20260505220004 63 220 2.0 4.0 0.00 0.00 0.00 70 1015.2
20260505215003 63 220 2.0 4.0 0.00 0.00 0.00 70 1015.2
20260505214003 63 190 3.0 5.0 0.00 0.00 0.00 72 1015.2
20260505213004 64 180 1.0 5.0 0.00 0.00 0.00 71 1015.2
20260505212004 64 180 1.0 5.0 0.00 0.00 0.00 71 1015.2
20260505185004 60 187 1.0 4.0 0.00 0.00 0.00 75 1015.6
20260505184003 59 77 0.0 3.0 0.00 0.00 0.00 77 1015.6
20260505183003 60 219 2.0 3.0 0.00 0.00 0.00 76 1015.6
20260505182004 60 219 2.0 3.0 0.00 0.00 0.00 76 1015.6
20260505181003 59 238 1.0 4.0 0.00 0.00 0.00 78 1015.6
20260505180004 57 247 0.0 4.0 0.00 0.00 0.00 78 1015.6
20260505175004 57 247 0.0 4.0 0.00 0.00 0.00 78 1015.6
20260505174004 59 198 3.0 7.0 0.00 0.00 0.00 76 1015.2
20260505173003 59 230 3.0 4.0 0.00 0.00 0.00 78 1015.2
20260505172003 59 230 3.0 4.0 0.00 0.00 0.00 78 1015.2
20260505171003 58 226 1.0 3.0 0.00 0.00 0.00 79 1015.2
20260505165004 57 226 0.0 4.0 0.00 0.00 0.00 80 1015.2
20260505164003 57 218 1.0 3.0 0.00 0.00 0.00 82 1014.9
20260505163003 56 238 1.0 4.0 0.00 0.00 0.00 83 1014.9
20260505162003 56 238 1.0 4.0 0.00 0.00 0.00 83 1014.9
20260505161003 56 221 1.0 3.0 0.00 0.00 0.00 84 1014.9
20260505153004 55 222 1.0 2.0 0.00 0.00 0.00 85 1014.6
20260505152003 55 222 1.0 2.0 0.00 0.00 0.00 85 1014.6
20260505151003 55 216 1.0 3.0 0.00 0.00 0.00 84 1014.6